STARLINK-2751 (48685 NORAD) Tracking and Keplerian Element Data

This shows tracking and keplerian element data for the satellite.

Feedback or suggestion? Click here.




ElementValue
Catalog48685
NameSTARLINK-2751
Epoch Orbit369
Epoch Day214.91667824
Epoch Year2021
RAAN86.0007
Inclination53.0474
Eccentricity0.000231
Argument of Perigee22.0427
Mean Anonmoly60.9394
Mean Motion15.73190263
Decay Rate-3.4E-06
L11 48685U 21044AZ 21214.91667824 -.00000340 00000-0 20129-5 0 9992
L22 48685 53.0474 86.0007 0002310 22.0427 60.9394 15.73190263 3696

Live tracking and technical data element details for STARLINK-2751 (NORAD 48685). STARLINK-2751 can be tracked NOW for your location showing map with azimuth and elevation plus other details from your city location.

Track the satellite on the map from your city or location and see movement details for azimuth, elevation, latitude, longitude, range, height, and movement on the map or in text.







IsCatalogInMostPopularTable: catalog: 48685, numindb: 15
Update: records affected: 1



GetName: 48685 STARLINK-2751

Hit Count: updated at: Tue, 03 Aug 2021 22:39:04 GMT